Volver al catálogo

TIANQI 26

ActivoComunicacionesLEO
NORAD 59910·PAYLOAD·🇨🇳 China

Lanzado May 29, 2024 desde Yellow Sea Launch Area

Loading…

Próximos Pases (próximas 24 horas)

TLE

ActualizadoSource: Space-Track

Época: Sep 14, 2026, 11:25 UTC

1 59910U 24102B   26257.47615116 -.00000026  00000-0  70169-4 0  9992
2 59910  44.9723 224.1892 0011822 305.1291  54.8433 13.99176425117416

Sigue TIANQI 26 en tiempo real con AllMySat

Download on the App Store